EW2964 Weather Reports


Display with metric or nautical units.
time (UTC)temp
F
wind
direction
speed
MPH
gust
MPH
rain 1hr
in
rain 24hr
in
rain mn
in
humidity
%
barometer
mb
20240519050009 56 246 1.0 3.0 0.00 0.46 0.00 98 1015.3
20240519045507 56 245 0.0 0.0 0.00 0.46 0.00 98 1015.3
20240519045007 56 245 0.0 0.0 0.00 0.47 0.00 97 1015.3
20240519044509 56 302 0.0 0.0 0.00 0.47 0.00 97 1015.3
20240519044013 56 302 0.0 0.0 0.00 0.48 0.00 97 1015.3
20240519043511 56 302 0.0 1.0 0.00 0.49 0.00 97 1015.4
20240519043013 56 302 0.0 2.0 0.00 0.50 0.00 97 1015.3
20240519042510 57 302 1.0 2.0 0.00 0.51 0.00 97 1015.3
20240519042004 57 302 0.0 3.0 0.00 0.51 0.00 97 1015.2
20240519041505 57 309 0.0 4.0 0.00 0.52 0.00 97 1015.1
20240519041005 57 296 1.0 4.0 0.00 0.52 0.00 97 1015.2
20240519040507 57 252 1.0 4.0 0.00 0.54 0.00 97 1015.2
20240519040008 57 284 2.0 4.0 0.00 0.55 0.00 98 1015.1
20240519035504 57 288 2.0 4.0 0.00 0.55 0.55 98 1015.2
20240519035008 57 286 2.0 4.0 0.00 0.56 0.55 97 1015.2
20240519034511 58 267 2.0 4.0 0.00 0.57 0.55 98 1015.2
20240519034010 57 286 1.0 3.0 0.00 0.58 0.55 98 1015.3
20240519033507 58 310 1.0 3.0 0.00 0.58 0.55 97 1015.2
20240519033022 58 307 1.0 2.0 0.00 0.58 0.55 97 1015.2
20240519032509 58 263 0.0 2.0 0.00 0.60 0.55 97 1015.2
20240519032007 58 302 0.0 0.0 0.00 0.60 0.55 96 1015.2
20240519031519 58 302 0.0 0.0 0.00 0.60 0.55 96 1015.1
20240519031007 59 302 0.0 2.0 0.00 0.60 0.55 96 1015.0
20240519030505 59 302 0.0 3.0 0.00 0.61 0.55 96 1015.0
20240519030005 59 302 0.0 3.0 0.00 0.61 0.55 96 1015.0
20240519025505 59 296 1.0 5.0 0.00 0.61 0.55 97 1014.8
20240519025004 59 303 2.0 5.0 0.00 0.61 0.55 97 1014.7
20240519024510 59 300 2.0 4.0 0.00 0.61 0.55 96 1014.7
20240519024007 60 294 1.0 3.0 0.00 0.61 0.55 96 1014.7
20240519023510 60 295 1.0 4.0 0.00 0.61 0.55 96 1014.7
20240519023020 60 272 2.0 4.0 0.00 0.61 0.55 96 1014.7
20240519022507 60 294 1.0 4.0 0.00 0.61 0.55 96 1014.7
20240519022007 60 292 2.0 4.0 0.00 0.61 0.55 96 1014.6
20240519021511 60 313 2.0 4.0 0.00 0.61 0.55 96 1014.6
20240519021007 61 269 1.0 4.0 0.00 0.61 0.55 96 1014.7
20240519020505 61 304 2.0 4.0 0.00 0.61 0.55 96 1014.6
20240519020018 61 282 1.0 4.0 0.00 0.62 0.55 95 1014.6
20240519015505 61 312 2.0 3.0 0.00 0.62 0.55 94 1014.6
20240519015005 62 303 1.0 3.0 0.00 0.62 0.55 94 1014.6
20240519014508 62 300 0.0 3.0 0.00 0.62 0.55 93 1014.5
20240519014005 62 313 1.0 3.0 0.00 0.62 0.55 93 1014.5
20240519013507 62 270 1.0 3.0 0.00 0.62 0.55 92 1014.4
20240519013012 63 326 0.0 3.0 0.00 0.62 0.55 91 1014.4
20240519012504 63 301 1.0 3.0 0.00 0.62 0.55 91 1014.2
20240519012008 64 292 1.0 3.0 0.00 0.62 0.55 91 1014.2
20240519011512 64 260 0.0 2.0 0.00 0.62 0.55 90 1014.1
20240519011005 64 309 1.0 2.0 0.00 0.62 0.55 89 1014.1
20240519010504 65 301 0.0 2.0 0.00 0.62 0.55 89 1014.0
20240519010004 65 289 0.0 3.0 0.00 0.62 0.55 88 1014.0
20240519005506 65 303 0.0 3.0 0.00 0.62 0.55 87 1014.1
20240519005004 66 305 1.0 3.0 0.00 0.62 0.55 86 1014.1
20240519004512 66 182 0.0 3.0 0.00 0.62 0.55 84 1014.0
20240519004006 67 160 1.0 3.0 0.00 0.62 0.55 82 1013.8
20240519003505 67 174 0.0 2.0 0.00 0.62 0.55 81 1013.7
20240519003010 67 64 0.0 4.0 0.00 0.62 0.55 81 1013.8
20240519002508 67 62 1.0 4.0 0.00 0.62 0.55 80 1013.7
20240519002013 68 92 1.0 4.0 0.00 0.62 0.55 79 1013.7
20240519001510 68 77 1.0 4.0 0.00 0.62 0.55 79 1013.6
20240519001008 68 86 0.0 3.0 0.00 0.62 0.55 78 1013.6
20240519000509 69 41 0.0 2.0 0.00 0.62 0.55 77 1013.5
20240519000014 69 21 0.0 4.0 0.00 0.62 0.55 76 1013.4
20240518235505 69 36 0.0 4.0 0.00 0.62 0.55 76 1013.4
20240518235004 69 48 0.0 3.0 0.00 0.62 0.55 76 1013.4
20240518234505 69 64 1.0 4.0 0.00 0.62 0.55 76 1013.3
20240518234004 70 29 2.0 4.0 0.00 0.63 0.55 75 1013.3
20240518233506 70 74 1.0 3.0 0.00 0.63 0.55 74 1013.2
20240518233004 70 96 1.0 4.0 0.00 0.63 0.55 73 1013.2
20240518232505 70 57 2.0 4.0 0.00 0.63 0.55 72 1013.1
20240518232005 71 71 0.0 6.0 0.00 0.63 0.55 72 1013.0
20240518231516 71 79 2.0 12.0 0.00 0.63 0.55 71 1013.0
20240518231007 71 94 2.0 12.0 0.00 0.63 0.55 70 1013.0
20240518230505 71 73 3.0 12.0 0.00 0.63 0.55 70 1013.0
20240518230011 72 61 4.0 9.0 0.00 0.63 0.55 69 1012.9
20240518225509 72 96 1.0 4.0 0.00 0.63 0.55 68 1012.9
20240518225008 72 336 1.0 8.0 0.00 0.63 0.55 68 1012.8
20240518224504 72 17 3.0 8.0 0.00 0.63 0.55 66 1012.8
20240518224005 73 57 2.0 8.0 0.00 0.63 0.55 64 1012.9
20240518223505 74 9 1.0 5.0 0.00 0.63 0.55 64 1012.7
20240518223004 74 40 1.0 6.0 0.00 0.63 0.55 63 1012.7
20240518222504 74 352 2.0 8.0 0.00 0.63 0.55 64 1012.6
20240518222005 73 49 1.0 8.0 0.00 0.63 0.55 63 1012.7
20240518221510 73 319 2.0 8.0 0.00 0.63 0.55 64 1012.7
20240518221005 73 349 5.0 8.0 0.00 0.63 0.55 62 1012.6
20240518220504 74 352 1.0 5.0 0.00 0.63 0.55 61 1012.6
20240518220024 73 9 2.0 6.0 0.00 0.63 0.55 64 1012.6
20240518215506 73 346 3.0 8.0 0.00 0.63 0.55 65 1012.7
20240518215008 73 323 3.0 9.0 0.00 0.63 0.55 64 1012.7
20240518214511 73 310 6.0 9.0 0.00 0.63 0.55 62 1012.7
20240518214009 73 5 3.0 11.0 0.00 0.63 0.55 63 1012.5
20240518213504 74 319 6.0 11.0 0.00 0.63 0.55 61 1012.7
20240518213017 75 296 3.0 9.0 0.00 0.63 0.55 60 1012.6
20240518212507 74 26 3.0 9.0 0.00 0.64 0.55 61 1012.7
20240518212005 73 307 4.0 9.0 0.00 0.64 0.55 62 1012.8
20240518211520 73 289 3.0 9.0 0.00 0.65 0.55 64 1012.8
20240518211004 72 39 5.0 10.0 0.00 0.66 0.55 64 1012.9
20240518210506 73 313 6.0 10.0 0.00 0.66 0.55 67 1012.8
20240518210017 73 292 1.0 7.0 0.00 0.66 0.55 66 1012.8
20240518205507 73 281 3.0 7.0 0.00 0.67 0.55 66 1012.8
20240518205005 73 315 2.0 4.0 0.00 0.67 0.55 67 1013.0
20240518204510 73 5 2.0 4.0 0.00 0.67 0.55 65 1013.0
20240518204008 74 101 1.0 3.0 0.00 0.67 0.55 64 1012.9
20240518203508 73 67 0.0 3.0 0.00 0.67 0.55 65 1012.9
20240518203006 73 40 0.0 8.0 0.00 0.67 0.55 64 1013.0
20240518202505 74 39 3.0 8.0 0.00 0.67 0.55 64 1013.0
20240518202004 75 49 1.0 6.0 0.00 0.67 0.55 62 1013.0
20240518201504 76 103 3.0 6.0 0.00 0.67 0.55 62 1013.1
20240518201005 75 107 2.0 8.0 0.00 0.67 0.55 63 1013.2
20240518200504 75 123 2.0 8.0 0.00 0.67 0.55 60 1013.2
20240518200007 75 130 4.0 8.0 0.00 0.67 0.55 60 1013.2
20240518195504 75 46 2.0 7.0 0.00 0.67 0.55 63 1013.3
20240518195006 74 5 1.0 6.0 0.00 0.67 0.55 66 1013.3
20240518194509 74 30 2.0 6.0 0.00 0.67 0.55 62 1013.3
20240518194008 75 113 1.0 8.0 0.00 0.67 0.55 62 1013.4
20240518193508 74 240 0.0 8.0 0.00 0.67 0.55 64 1013.4
20240518193013 74 47 3.0 7.0 0.00 0.67 0.55 61 1013.3
20240518192508 74 245 1.0 5.0 0.00 0.67 0.55 61 1013.3
20240518192004 73 342 2.0 6.0 0.00 0.67 0.55 61 1013.3
20240518191505 73 284 2.0 6.0 0.00 0.67 0.55 64 1013.3
20240518191005 72 152 2.0 5.0 0.00 0.69 0.55 65 1013.4
20240518190505 72 61 2.0 5.0 0.00 0.79 0.55 67 1013.4
20240518190005 73 60 3.0 6.0 0.00 0.81 0.55 66 1013.6
20240518185507 73 101 1.0 6.0 0.00 0.82 0.55 67 1013.7
20240518185005 73 76 2.0 6.0 0.00 0.82 0.55 66 1013.8
20240518184510 73 85 3.0 6.0 0.00 0.82 0.55 64 1013.8
20240518184005 73 339 1.0 4.0 0.00 0.82 0.55 64 1013.8
20240518183509 73 240 2.0 4.0 0.00 0.83 0.55 61 1014.0
20240518183013 73 215 0.0 6.0 0.00 0.83 0.55 66 1014.1
20240518182511 72 107 1.0 6.0 0.00 0.83 0.55 63 1014.1
20240518182008 72 260 3.0 6.0 0.00 0.83 0.55 63 1014.1
20240518181509 73 323 3.0 5.0 0.00 0.83 0.55 65 1014.1
20240518181004 73 308 1.0 3.0 0.00 0.83 0.55 65 1014.0
20240518180505 72 132 0.0 4.0 0.00 0.83 0.55 63 1014.1
20240518180011 71 158 0.0 4.0 0.00 0.83 0.55 65 1014.2
20240518175505 70 285 1.0 6.0 0.00 0.83 0.55 65 1014.4
20240518175005 70 322 3.0 6.0 0.00 0.83 0.55 66 1014.4
20240518174508 70 246 1.0 5.0 0.00 0.83 0.55 67 1014.5
20240518174005 70 250 1.0 6.0 0.00 0.83 0.55 67 1014.5
20240518173507 70 315 2.0 6.0 0.00 0.83 0.55 68 1014.6
20240518173033 70 283 2.0 5.0 0.00 0.83 0.55 69 1014.7
20240518172505 70 158 1.0 4.0 0.00 0.83 0.55 71 1014.7
20240518172009 70 265 1.0 3.0 0.00 0.83 0.55 76 1014.8
20240518171519 69 125 0.0 5.0 0.00 0.83 0.55 74 1014.9
20240518171004 69 312 2.0 5.0 0.00 0.83 0.55 76 1015.0
20240518170506 68 250 1.0 4.0 0.00 0.83 0.55 78 1015.0
20240518170004 67 311 0.0 4.0 0.00 0.83 0.55 80 1015.0
20240518165504 67 74 1.0 7.0 0.00 0.83 0.55 81 1015.0
20240518165005 67 140 2.0 7.0 0.00 0.83 0.55 82 1014.7
20240518164508 67 110 4.0 7.0 0.00 0.83 0.55 83 1014.6
20240518164007 67 114 2.0 6.0 0.00 0.83 0.55 83 1014.6
20240518163504 66 114 1.0 6.0 0.00 0.83 0.55 82 1014.6
20240518163012 66 37 2.0 6.0 0.00 0.83 0.55 83 1014.6
20240518162508 67 66 2.0 6.0 0.00 0.83 0.55 82 1014.6
20240518162005 67 72 0.0 6.0 0.00 0.83 0.55 83 1014.6
20240518161510 66 333 2.0 5.0 0.00 0.83 0.55 83 1014.6
20240518161007 66 360 2.0 5.0 0.00 0.83 0.55 84 1014.5
20240518160511 66 34 2.0 5.0 0.00 0.83 0.55 84 1014.6
20240518160004 66 38 0.0 4.0 0.00 0.83 0.55 84 1014.7
20240518155505 65 54 0.0 5.0 0.00 0.83 0.55 84 1014.7
20240518155004 65 344 1.0 5.0 0.00 0.83 0.55 85 1014.9
20240518154506 65 348 2.0 6.0 0.00 0.83 0.55 85 1014.7
20240518154005 65 32 2.0 6.0 0.00 0.83 0.55 84 1014.7
20240518153504 65 59 0.0 4.0 0.00 0.83 0.55 85 1014.8
20240518153019 65 11 2.0 4.0 0.00 0.83 0.55 85 1014.8
20240518152507 65 331 2.0 4.0 0.00 0.83 0.55 85 1014.7
20240518152007 65 78 2.0 3.0 0.00 0.83 0.55 85 1014.6
20240518151513 65 40 1.0 6.0 0.00 0.83 0.55 85 1014.7
20240518151007 66 132 2.0 6.0 0.00 0.83 0.55 84 1014.6
20240518150508 66 33 1.0 4.0 0.00 0.83 0.55 84 1014.6
20240518150013 66 63 1.0 4.0 0.00 0.83 0.55 83 1014.5
20240518145504 65 346 0.0 2.0 0.00 0.83 0.55 85 1014.5
20240518145004 65 42 0.0 3.0 0.00 0.83 0.55 85 1014.4
20240518144515 65 321 0.0 3.0 0.00 0.83 0.55 85 1014.5
20240518144009 65 340 2.0 4.0 0.00 0.83 0.55 84 1014.5
20240518143503 65 326 1.0 5.0 0.00 0.83 0.55 86 1014.5
20240518143008 65 336 1.0 5.0 0.00 0.83 0.55 86 1014.6
20240518142508 65 42 1.0 4.0 0.00 0.83 0.55 86 1014.6
20240518142005 65 84 2.0 5.0 0.00 0.83 0.55 87 1014.5
20240518141524 64 63 2.0 5.0 0.00 0.83 0.55 88 1014.5
20240518141006 64 129 0.0 4.0 0.00 0.83 0.55 88 1014.4
20240518140508 64 45 2.0 4.0 0.00 0.83 0.55 89 1014.4
20240518140015 63 173 1.0 4.0 0.00 0.83 0.55 89 1014.4
20240518135510 63 116 2.0 4.0 0.00 0.83 0.55 89 1014.5
20240518135007 64 57 2.0 6.0 0.00 0.83 0.55 89 1014.5
20240518134504 63 96 3.0 5.0 0.00 0.83 0.55 91 1014.6
20240518134004 63 161 0.0 5.0 0.00 0.83 0.55 90 1014.6
20240518133504 63 148 2.0 6.0 0.00 0.83 0.55 90 1014.5
20240518133005 63 84 2.0 6.0 0.00 0.83 0.55 90 1014.5
20240518132505 63 113 3.0 6.0 0.00 0.83 0.55 91 1014.6
20240518132008 62 63 0.0 3.0 0.00 0.83 0.55 93 1014.8
20240518131509 61 134 2.0 3.0 0.00 0.83 0.55 95 1014.8
20240518131005 60 173 0.0 2.0 0.00 0.83 0.55 94 1014.9
20240518130505 60 205 0.0 3.0 0.00 0.83 0.55 95 1014.8
20240518130009 60 250 1.0 3.0 0.00 0.83 0.55 95 1014.7
20240518125508 60 279 0.0 2.0 0.00 0.83 0.55 96 1014.9
20240518125009 60 165 0.0 3.0 0.00 0.83 0.55 97 1014.7
20240518124533 60 188 0.0 3.0 0.00 0.83 0.55 97 1014.6
20240518124005 60 153 0.0 3.0 0.00 0.83 0.55 99 1014.6
20240518123505 59 122 1.0 3.0 0.00 0.83 0.55 99 1014.3
20240518123007 59 66 0.0 2.0 0.00 0.83 0.55 99 1014.2
20240518122504 59 131 0.0 0.0 0.00 0.83 0.55 99 1014.2
20240518122004 59 131 0.0 1.0 0.00 0.83 0.55 100 1014.1
20240518121508 59 131 0.0 3.0 0.00 0.83 0.55 100 1014.1
20240518121004 58 131 0.0 3.0 0.00 0.83 0.55 100 1014.1
20240518120506 58 138 1.0 3.0 0.00 0.83 0.55 100 1014.1
20240518120010 58 237 0.0 2.0 0.00 0.83 0.55 100 1014.2
20240518115505 58 299 1.0 2.0 0.00 0.83 0.55 100 1014.2
20240518115005 57 254 0.0 3.0 0.00 0.83 0.55 100 1014.2
20240518114511 57 291 1.0 3.0 0.00 0.83 0.55 99 1014.2
20240518114008 57 294 1.0 3.0 0.00 0.83 0.55 100 1014.2
20240518113508 57 277 1.0 4.0 0.00 0.83 0.55 99 1014.3
20240518113005 57 242 1.0 4.0 0.00 0.83 0.55 100 1014.3
20240518112506 57 240 2.0 4.0 0.00 0.83 0.55 100 1014.3
20240518112005 57 260 1.0 2.0 0.00 0.83 0.55 99 1014.3
20240518111508 57 288 0.0 1.0 0.00 0.83 0.55 99 1014.2
20240518111005 57 290 0.0 2.0 0.00 0.84 0.55 99 1014.0
20240518110504 57 302 0.0 2.0 0.00 0.84 0.55 99 1014.1
20240518110009 57 302 1.0 2.0 0.00 0.84 0.55 99 1014.1
20240518105506 57 163 0.0 4.0 0.00 0.84 0.55 99 1013.9
20240518105006 57 163 0.0 4.0 0.00 0.84 0.55 99 1013.9
20240518104509 57 142 2.0 3.0 0.00 0.84 0.55 99 1013.8
20240518104005 57 219 0.0 2.0 0.00 0.84 0.55 99 1013.7
20240518103508 57 259 0.0 2.0 0.00 0.84 0.55 99 1013.6
20240518103012 57 259 1.0 3.0 0.00 0.84 0.55 99 1013.4
20240518102505 57 269 1.0 3.0 0.00 0.84 0.55 99 1013.3
20240518102003 57 269 1.0 3.0 0.00 0.84 0.55 99 1013.2
20240518101505 57 237 1.0 3.0 0.00 0.84 0.55 99 1013.0
20240518101006 57 290 1.0 2.0 0.00 0.84 0.55 99 1013.1
20240518100508 57 263 1.0 3.0 0.00 0.84 0.55 99 1013.1
20240518100007 57 271 1.0 4.0 0.00 0.84 0.55 99 1013.0
20240518095504 57 299 1.0 4.0 0.00 0.84 0.55 99 1012.8
20240518095008 58 313 2.0 4.0 0.00 0.84 0.55 99 1012.7
20240518094513 58 280 0.0 3.0 0.00 0.84 0.55 99 1012.6
20240518094009 58 266 1.0 3.0 0.00 0.84 0.55 99 1012.6
20240518093508 58 71 0.0 2.0 0.00 0.84 0.55 99 1012.5
20240518093013 58 41 0.0 3.0 0.01 0.84 0.55 99 1012.7
20240518092505 58 41 1.0 3.0 0.01 0.84 0.55 99 1012.4
20240518092004 58 118 1.0 3.0 0.01 0.84 0.55 99 1012.3
20240518091505 58 228 1.0 5.0 0.02 0.84 0.55 99 1012.3
20240518091004 58 222 1.0 5.0 0.02 0.84 0.55 99 1012.2
20240518090504 58 223 3.0 5.0 0.02 0.84 0.55 99 1012.1
20240518090014 58 238 4.0 6.0 0.03 0.84 0.55 99 1012.0
20240518085504 58 298 3.0 6.0 0.03 0.84 0.55 99 1012.0
20240518085004 58 288 2.0 6.0 0.04 0.84 0.55 99 1011.8
20240518084509 58 298 1.0 9.0 0.05 0.84 0.55 99 1011.7
20240518084007 58 302 5.0 9.0 0.05 0.84 0.55 99 1011.8
20240518083507 59 317 4.0 7.0 0.06 0.84 0.55 99 1011.7
20240518083013 59 280 0.0 4.0 0.06 0.83 0.54 99 1011.6
20240518082506 59 306 2.0 4.0 0.08 0.83 0.54 100 1012.1
20240518082009 59 69 1.0 4.0 0.11 0.83 0.54 100 1012.1
20240518081513 59 130 2.0 4.0 0.13 0.82 0.52 100 1012.4
20240518081005 59 28 0.0 2.0 0.15 0.82 0.52 100 1012.8
20240518080504 59 36 1.0 3.0 0.17 0.82 0.52 100 1013.0
20240518080006 59 22 1.0 4.0 0.17 0.81 0.52 100 1012.9
20240518075504 59 109 2.0 4.0 0.19 0.81 0.52 100 1012.9
20240518075004 59 144 0.0 2.0 0.19 0.80 0.51 100 1013.2
20240518074509 59 144 0.0 3.0 0.19 0.79 0.50 99 1013.3
20240518074010 59 144 1.0 3.0 0.21 0.79 0.50 99 1013.3
20240518073509 59 153 1.0 3.0 0.20 0.78 0.49 99 1013.3
20240518073017 59 203 0.0 2.0 0.20 0.77 0.48 99 1013.3
20240518072504 59 248 0.0 2.0 0.18 0.75 0.46 99 1013.3
20240518072007 59 252 0.0 1.0 0.16 0.72 0.43 99 1013.3
20240518071520 59 252 0.0 1.0 0.13 0.69 0.40 99 1013.3
20240518071014 59 252 0.0 1.0 0.11 0.67 0.38 99 1013.4
20240518070510 59 226 0.0 2.0 0.10 0.65 0.36 99 1013.3
20240518070011 59 226 0.0 3.0 0.10 0.64 0.35 99 1013.4
20240518065504 59 225 1.0 3.0 0.09 0.62 0.33 99 1013.6
20240518065007 59 280 1.0 3.0 0.09 0.61 0.32 99 1013.4
20240518064509 59 251 0.0 3.0 0.10 0.60 0.31 99 1013.3
20240518064008 59 236 1.0 4.0 0.09 0.58 0.29 99 1013.3
20240518063507 59 275 2.0 4.0 0.10 0.58 0.29 99 1013.3
20240518063022 59 228 1.0 3.0 0.11 0.57 0.28 99 1013.1
20240518062511 59 296 1.0 3.0 0.13 0.57 0.28 99 1013.1
20240518062008 59 55 0.0 1.0 0.14 0.56 0.27 99 1013.0
20240518061517 59 79 0.0 1.0 0.16 0.56 0.27 99 1013.1
20240518061003 59 78 0.0 1.0 0.17 0.56 0.27 99 1013.1
20240518060514 59 86 0.0 1.0 0.17 0.55 0.26 99 1012.9
20240518060025 59 162 0.0 1.0 0.16 0.54 0.25 99 1013.0
20240518055504 59 167 0.0 1.0 0.15 0.52 0.24 99 1013.2
20240518055005 59 167 0.0 1.0 0.15 0.52 0.23 99 1013.4
20240518054505 59 167 0.0 1.0 0.13 0.50 0.21 99 1013.3
20240518054006 59 136 0.0 4.0 0.13 0.49 0.20 99 1013.3
20240518053519 59 135 0.0 4.0 0.13 0.48 0.19 99 1013.2
20240518053017 59 134 2.0 3.0 0.12 0.46 0.17 99 1013.3
20240518052504 59 122 1.0 4.0 0.11 0.44 0.15 99 1013.3
20240518052008 59 261 0.0 4.0 0.09 0.42 0.13 99 1013.6
20240518051525 59 243 2.0 4.0 0.08 0.40 0.11 99 1013.8
20240518051011 59 238 1.0 3.0 0.08 0.39 0.10 99 1013.7
20240518050557 59 312 1.0 3.0 0.08 0.38 0.09 99 1013.8